[[{"header":{"parameterUnit":"m.s-1","parameterCategory":1,"la1":30.2991,"la2":30.254,"lo1":-89.0895,"lo2":-89.0444,"dy":0.0017,"dx":0.0017,"nx":28,"ny":28,"refTime":"2024-08-10T15:00:00:Z","depth":0,"parameterNumber":2,"parameterNumberName":"U-component_of_WINDS"},"data":[0,0,0,0,0,0,0,0,0,0,0,0,0,0,0,0,0,0,0,0,0,0,0,0,0,0,0,0,0,0,0,0,0,0,0,0,0,0,0,0,0,0,0,0,0,0,0,0,0,0,0,0,0,0,0,0,0,0,-1.4252,-1.4252,0,-1.4252,-1.4252,-1.4252,-1.417,-1.4167,-1.4165,-1.4163,-1.4166,-1.4168,-1.417,0,0,0,0,0,0,0,0,0,0,0,0,0,-1.4181,-1.4183,-1.4252,-1.4252,-1.4252,-1.4252,-1.4252,-1.4252,-1.417,-1.4167,-1.4165,-1.4162,-1.4165,-1.4168,-1.4171,0,0,0,0,0,0,0,0,0,0,0,0,0,-1.42,-1.4183,-1.4252,-1.4211,-1.4207,-1.4252,-1.4252,-1.4252,-1.417,-1.4167,-1.4164,-1.4161,-1.4165,-1.4168,-1.4171,-1.4256,0,0,-1.4181,-1.4182,0,0,0,0,0,0,0,0,-1.4199,-1.4202,-1.4217,-1.4213,-1.4209,-1.4207,-1.4228,-1.4253,-1.4171,-1.4184,-1.4163,-1.4159,-1.4183,-1.4184,-1.4191,-1.4256,-1.4256,-1.4181,-1.4183,-1.4184,-1.4185,0,0,0,0,0,0,0,-1.4198,-1.4202,-1.4252,-1.4217,-1.4213,-1.4193,-1.4192,-1.4232,-1.4202,-1.4183,-1.4177,-1.4178,-1.418,-1.4189,-1.4191,-1.4256,-1.4181,-1.4184,-1.4186,-1.4187,-1.439,-1.4393,0,0,0,0,0,0,-1.4202,-1.4201,-1.4252,-1.4252,-1.4196,-1.4197,-1.4195,-1.4211,-1.4201,-1.4197,-1.4181,-1.4174,-1.4185,-1.4187,-1.4191,-1.429,-1.4184,-1.4187,-1.4189,-1.4386,-1.4391,-1.4394,0,0,0,0,0,0,-1.42,-1.4207,-1.4252,-1.4225,-1.4229,-1.4201,-1.422,-1.4213,-1.4221,-1.42,-1.4194,-1.4195,-1.4182,-1.4186,-1.424,-1.4289,-1.4188,-1.4191,-1.4382,-1.4388,-1.4393,-1.4489,0,0,0,0,0,0,-1.4199,-1.4207,-1.4239,-1.4226,-1.4231,-1.4301,-1.4223,-1.4215,-1.4227,-1.4218,-1.4212,-1.4207,-1.418,-1.4236,-1.4243,-1.4292,-1.4194,-1.4378,-1.4385,-1.4391,-1.4482,-1.4497,-1.451,0,0,0,0,0,-1.4196,-1.4267,-1.4241,-1.4248,-1.427,-1.4304,-1.4307,-1.4273,-1.4231,-1.4263,-1.4249,-1.4208,-1.4282,-1.4242,-1.425,-1.43,-1.4375,-1.4383,-1.439,-1.4475,-1.4494,-1.451,0,0,0,0,0,0,-1.4288,-1.4265,-1.4236,-1.4304,-1.4306,-1.429,-1.433,-1.4294,-1.431,-1.4301,-1.4259,-1.4259,-1.4319,-1.4314,-1.427,-1.4381,-1.4321,-1.4331,-1.4383,-1.44,-1.4415,-1.4416,-1.4196,0,0,0,0,0,-1.4315,-1.4344,-1.4322,-1.4385,-1.4387,-1.4358,-1.4372,-1.4346,-1.4347,-1.4348,-1.4338,-1.4341,-1.4365,-1.4382,-1.4403,-1.4479,-1.4477,-1.4517,-1.4532,-1.4544,-1.4554,-1.4594,-1.4612,-1.442,-1.442,-1.442,0,0,-1.4374,-1.4364,-1.4386,-1.4403,-1.4402,-1.4433,-1.436,-1.4397,-1.442,-1.4354,-1.4404,-1.4396,-1.4397,-1.4463,-1.4491,-1.4461,-1.4605,-1.4554,-1.4564,-1.4567,-1.4604,-1.4622,-1.4638,-1.4426,-1.4425,-1.4424,0,0,-1.4496,-1.4492,-1.4543,-1.4543,-1.4542,-1.4521,-1.4534,-1.4522,-1.4514,-1.4564,-1.4515,-1.4541,-1.4583,-1.4586,-1.4593,-1.4714,-1.4678,-1.4722,-1.4799,-1.4839,-1.4854,-1.4867,-1.4912,-1.4928,-1.4731,-1.4732,-1.4732,0,-1.457,-1.4615,-1.4574,-1.4614,-1.4623,-1.4563,-1.4615,-1.4617,-1.4623,-1.4631,-1.4596,-1.4647,-1.4643,-1.4709,-1.4738,-1.4745,-1.4759,-1.4724,-1.4855,-1.4867,-1.4879,-1.4921,-1.4938,-1.4737,-1.4737,-1.4736,-1.4736,0,-1.4705,-1.4737,-1.4778,-1.4784,-1.4798,-1.4844,-1.4811,-1.4829,-1.4801,-1.4785,-1.4835,-1.4828,-1.4847,-1.4859,-1.4833,-1.4921,-1.4903,-1.4862,-1.4801,-1.4904,-1.4943,-1.4958,-1.4745,-1.4743,-1.4742,-1.474,0,0,-1.4889,-1.487,-1.4886,-1.4888,-1.4881,-1.4905,-1.4947,-1.4964,-1.4981,-1.4986,-1.5022,-1.5057,-1.5019,-1.5027,-1.4999,-1.5034,-1.5132,-1.4989,-1.4988,-1.5017,-1.523,-1.5263,-1.5282,-1.5106,-1.5108,-1.5111,-1.523,0,-1.5009,-1.508,-1.5044,-1.512,-1.5149,-1.5091,-1.5128,-1.5128,-1.5113,-1.5136,-1.5119,-1.5146,-1.5092,-1.5097,-1.5128,-1.5113,-1.5174,-1.5104,-1.514,-1.5142,-1.5144,-1.5302,-1.5337,-1.545,-1.5245,-1.5248,-1.525,0,-1.5159,-1.517,-1.5249,-1.5235,-1.5246,-1.528,-1.5292,-1.5314,-1.5312,-1.5298,-1.5306,-1.527,-1.5311,-1.5249,-1.5305,-1.5258,-1.527,-1.5265,-1.5268,-1.5272,-1.5204,-1.5313,-1.5485,-1.5503,-1.5273,-1.5271,-1.5269,0,-1.5288,-1.5321,-1.5372,-1.5375,-1.536,-1.5386,-1.5381,-1.5375,-1.5387,-1.5398,-1.5405,-1.542,-1.5429,-1.5442,-1.5411,-1.5368,-1.5472,-1.5407,-1.5464,-1.5465,-1.5491,-1.549,-1.5671,-1.5495,-1.5495,-1.5494,-1.5494,0,-1.5427,-1.5478,-1.5429,-1.5462,-1.5517,-1.5474,-1.553,-1.5519,-1.5514,-1.5543,-1.5493,-1.5522,-1.5478,-1.5502,-1.5478,-1.5529,-1.5533,-1.5524,-1.5518,-1.553,-1.5532,-1.554,-1.5532,-1.5499,-1.5498,-1.5497,-1.5496,0,-1.5581,-1.555,-1.5603,-1.5583,-1.5579,-1.5621,-1.5605,-1.5634,-1.5614,-1.5651,-1.5658,-1.5628,-1.5653,-1.5623,-1.5646,-1.563,-1.5699,-1.568,-1.57,-1.5696,-1.5755,-1.5751,-1.5949,-1.5973,-1.578,-1.5782,-1.5783,0,-1.5674,-1.5711,-1.5695,-1.571,-1.5708,-1.5733,-1.5744,-1.5703,-1.5717,-1.5717,-1.5747,-1.5767,-1.5783,-1.5826,-1.5807,-1.5825,-1.5807,-1.5875,-1.5809,-1.5821,-1.581,-1.5809,-1.5813,-1.5889,-1.5892,-1.5893,-1.5895,0,-1.5841,-1.5824,-1.5842,-1.5854,-1.5869,-1.5877,-1.5881,-1.5897,-1.5853,-1.5872,-1.5897,-1.5908,-1.5931,-1.5953,-1.5965,-1.596,-1.5922,-1.5915,-1.5929,-1.5944,-1.5955,-1.5952,-1.5739,-1.5912,-1.591,-1.5909,-1.5908,-1.5907,-1.5969,-1.5999,-1.5992,-1.6014,-1.6012,-1.6017,-1.6043,-1.6026,-1.6045,-1.606,-1.6034,-1.6066,-1.6062,-1.6074,-1.6073,-1.6098,-1.6069,-1.6089,-1.6095,-1.6101,-1.6111,-1.5949,-1.61,-1.6099,-1.6099,-1.6098,-1.6098,0,-1.6136,-1.6127,-1.6147,-1.6154,-1.6171,-1.613,-1.6132,-1.6149,-1.6178,-1.6176,-1.6191,-1.622,-1.6241,-1.6222,-1.6239,-1.6262,-1.6245,-1.6268,-1.6268,-1.6267,-1.6135,-1.6122,-1.6282,-1.6282,-1.6282,-1.6282,-1.6282,-1.6282,-1.6225,-1.6274,-1.6256,-1.6304,-1.6295,-1.6325,-1.633,-1.6334,-1.6333,-1.6367,-1.6383,-1.637,-1.6362,-1.6377,-1.6395,-1.6388,-1.6398,-1.6429,-1.6417,-1.6295,-1.6277,-1.6259,-1.6247,-1.643,-1.6431,-1.6547,-1.6548,-1.6549]},{"header":{"parameterUnit":"m.s-1","parameterCategory":1,"la1":30.2991,"la2":30.254,"lo1":-89.0895,"lo2":-89.0444,"dy":0.0017,"dx":0.0017,"nx":28,"ny":28,"refTime":"2024-08-10T15:00:00:Z","depth":0,"parameterNumber":3,"parameterNumberName":"V-component_of_WINDS"},"data":[0,0,0,0,0,0,0,0,0,0,0,0,0,0,0,0,0,0,0,0,0,0,0,0,0,0,0,0,0,0,0,0,0,0,0,0,0,0,0,0,0,0,0,0,0,0,0,0,0,0,0,0,0,0,0,0,0,0,-5.3344,-5.3345,0,-5.341,-5.3411,-5.3412,-5.3327,-5.3324,-5.3321,-5.3318,-5.3381,-5.3385,-5.339,0,0,0,0,0,0,0,0,0,0,0,0,0,-5.3141,-5.3145,-5.3344,-5.3345,-5.3346,-5.341,-5.3411,-5.3412,-5.3328,-5.3324,-5.332,-5.3317,-5.3379,-5.3385,-5.339,0,0,0,0,0,0,0,0,0,0,0,0,0,-5.322,-5.3146,-5.3344,-5.3312,-5.331,-5.341,-5.3411,-5.3412,-5.3329,-5.3324,-5.332,-5.3315,-5.3378,-5.3384,-5.3391,-5.3524,0,0,-5.3412,-5.3415,0,0,0,0,0,0,0,0,-5.3216,-5.3227,-5.3316,-5.3314,-5.3312,-5.3356,-5.3362,-5.3449,-5.333,-5.3321,-5.3318,-5.3313,-5.3376,-5.3383,-5.3405,-5.3527,-5.353,-5.3412,-5.3416,-5.3419,-5.3421,0,0,0,0,0,0,0,-5.321,-5.3224,-5.337,-5.3317,-5.3315,-5.3292,-5.3299,-5.3378,-5.3373,-5.3322,-5.3316,-5.3325,-5.3374,-5.3399,-5.3406,-5.3531,-5.3412,-5.3418,-5.3422,-5.3425,-5.3764,-5.3769,0,0,0,0,0,0,-5.3209,-5.322,-5.3368,-5.3372,-5.3252,-5.33,-5.3307,-5.3346,-5.3372,-5.3372,-5.3329,-5.3321,-5.3389,-5.3398,-5.3408,-5.3565,-5.3419,-5.3425,-5.3429,-5.3759,-5.3765,-5.3771,0,0,0,0,0,0,-5.3205,-5.3223,-5.3365,-5.3295,-5.3311,-5.3308,-5.3353,-5.335,-5.3375,-5.3378,-5.3376,-5.3355,-5.3386,-5.3398,-5.3496,-5.3566,-5.3429,-5.3435,-5.3753,-5.3761,-5.3768,-5.3881,0,0,0,0,0,0,-5.32,-5.3222,-5.3274,-5.3297,-5.3315,-5.3455,-5.3358,-5.3355,-5.3387,-5.3377,-5.3402,-5.3402,-5.3383,-5.3486,-5.3503,-5.3572,-5.344,-5.3747,-5.3757,-5.3766,-5.3871,-5.3891,-5.3908,0,0,0,0,0,-5.3193,-5.3303,-5.3277,-5.3296,-5.3381,-5.3459,-5.3469,-5.3448,-5.3393,-5.3444,-5.3446,-5.3401,-5.3556,-5.3497,-5.3515,-5.3588,-5.3743,-5.3754,-5.3765,-5.3862,-5.3887,-5.3908,0,0,0,0,0,0,-5.3287,-5.3305,-5.3277,-5.3398,-5.3428,-5.3445,-5.3509,-5.3475,-5.3519,-5.3508,-5.3477,-5.3484,-5.3588,-5.3597,-5.3532,-5.3717,-5.364,-5.3655,-5.3708,-5.3731,-5.375,-5.3745,-5.3446,0,0,0,0,0,-5.3322,-5.3386,-5.3398,-5.3503,-5.3519,-5.3512,-5.3545,-5.3526,-5.3555,-5.3567,-5.3575,-5.3604,-5.3659,-5.3695,-5.3746,-5.3871,-5.3875,-5.393,-5.3949,-5.3965,-5.3978,-5.4044,-5.4068,-5.3807,-5.3807,-5.3807,0,0,-5.3395,-5.3412,-5.3455,-5.3522,-5.3543,-5.3608,-5.3523,-5.3596,-5.3643,-5.3577,-5.367,-5.3678,-5.3707,-5.382,-5.3869,-5.3831,-5.4051,-5.3979,-5.3991,-5.3996,-5.4058,-5.4083,-5.4105,-5.3815,-5.3814,-5.3812,0,0,-5.3561,-5.3581,-5.3671,-5.3694,-5.3727,-5.3721,-5.3743,-5.3765,-5.3768,-5.3861,-5.3813,-5.3868,-5.3963,-5.3986,-5.401,-5.4184,-5.4144,-5.4201,-5.43,-5.4365,-5.4385,-5.4403,-5.4464,-5.4487,-5.4215,-5.4215,-5.4215,0,-5.3646,-5.3745,-5.3721,-5.3797,-5.3828,-5.3772,-5.3862,-5.3884,-5.3932,-5.3953,-5.391,-5.4028,-5.4044,-5.416,-5.4203,-5.4224,-5.4247,-5.4198,-5.4384,-5.4402,-5.4419,-5.4477,-5.45,-5.4222,-5.4221,-5.422,-5.422,0,-5.3848,-5.3917,-5.3985,-5.4034,-5.4072,-5.4155,-5.4141,-5.4182,-5.416,-5.4158,-5.4253,-5.427,-5.4323,-5.4349,-5.4327,-5.4462,-5.4437,-5.439,-5.4311,-5.4451,-5.4505,-5.4527,-5.4232,-5.4229,-5.4227,-5.4225,0,0,-5.4075,-5.411,-5.4135,-5.4157,-5.4189,-5.4241,-5.432,-5.4373,-5.4408,-5.4443,-5.4507,-5.4589,-5.4545,-5.4573,-5.4553,-5.461,-5.4745,-5.4555,-5.4555,-5.4589,-5.4894,-5.493,-5.4956,-5.4719,-5.4723,-5.4726,-5.4891,0,-5.4241,-5.438,-5.4361,-5.4494,-5.4556,-5.4504,-5.4573,-5.4599,-5.4599,-5.465,-5.465,-5.4708,-5.4646,-5.4662,-5.4716,-5.4718,-5.4806,-5.4705,-5.4777,-5.478,-5.4771,-5.4984,-5.5022,-5.5177,-5.4912,-5.4916,-5.4919,0,-5.4453,-5.4497,-5.4637,-5.4659,-5.4684,-5.4747,-5.4793,-5.4844,-5.4872,-5.4867,-5.4899,-5.4868,-5.4945,-5.4865,-5.4971,-5.4903,-5.493,-5.4935,-5.4941,-5.4946,-5.4858,-5.4995,-5.5226,-5.525,-5.4952,-5.4949,-5.4947,0,-5.4604,-5.4698,-5.4793,-5.4813,-5.4841,-5.4886,-5.49,-5.4923,-5.4956,-5.4997,-5.5017,-5.5066,-5.5092,-5.5129,-5.5111,-5.5055,-5.5219,-5.5139,-5.5217,-5.5218,-5.5254,-5.5252,-5.5493,-5.5273,-5.5273,-5.5272,-5.5272,0,-5.4791,-5.4878,-5.4862,-5.4921,-5.5016,-5.4992,-5.5087,-5.5094,-5.5115,-5.5173,-5.513,-5.5185,-5.5158,-5.5211,-5.5197,-5.5286,-5.5298,-5.5296,-5.5291,-5.53,-5.53,-5.5317,-5.5306,-5.5278,-5.5277,-5.5276,-5.5275,0,-5.4976,-5.4969,-5.5069,-5.5088,-5.5095,-5.5165,-5.518,-5.5234,-5.523,-5.5304,-5.532,-5.5315,-5.5374,-5.536,-5.5425,-5.5415,-5.5527,-5.5509,-5.5518,-5.5514,-5.5593,-5.5586,-5.5853,-5.5887,-5.5646,-5.5648,-5.565,0,-5.5096,-5.5162,-5.5188,-5.5225,-5.5242,-5.5302,-5.5335,-5.5313,-5.535,-5.5386,-5.5436,-5.5492,-5.5535,-5.5632,-5.5633,-5.5682,-5.5664,-5.5754,-5.5671,-5.5677,-5.5665,-5.5661,-5.5667,-5.5771,-5.5774,-5.5776,-5.5778,0,-5.5309,-5.5302,-5.5353,-5.5404,-5.5446,-5.5483,-5.5517,-5.5549,-5.5529,-5.5572,-5.5633,-5.5667,-5.5734,-5.5789,-5.5834,-5.5845,-5.5809,-5.5804,-5.5825,-5.5834,-5.5837,-5.5836,-5.5563,-5.5798,-5.5796,-5.5795,-5.5793,-5.5793,-5.5465,-5.5521,-5.5548,-5.5607,-5.563,-5.5662,-5.5714,-5.5718,-5.5769,-5.5822,-5.5806,-5.5875,-5.5899,-5.5956,-5.5974,-5.6026,-5.5992,-5.6022,-5.6029,-5.6037,-5.6047,-5.5829,-5.6034,-5.6034,-5.6033,-5.6033,-5.6032,0,-5.5675,-5.569,-5.5744,-5.5793,-5.5839,-5.5801,-5.5836,-5.5876,-5.5939,-5.5966,-5.601,-5.6079,-5.6133,-5.6138,-5.6188,-5.6229,-5.6213,-5.6243,-5.6239,-5.6242,-5.6075,-5.6052,-5.6255,-5.6255,-5.6254,-5.6254,-5.6254,-5.6254,-5.579,-5.5883,-5.5879,-5.5983,-5.5996,-5.6066,-5.6089,-5.6118,-5.6139,-5.6219,-5.6264,-5.6268,-5.6285,-5.6336,-5.6383,-5.6383,-5.6403,-5.6439,-5.6433,-5.6276,-5.6254,-5.6233,-5.6211,-5.6444,-5.6444,-5.6595,-5.6597,-5.6598]}]]